Weather History for Nellis AFB, NV

Change the Weather History Date:

Thursday, March 7, 2013

  Actual Average Record
Temperature  
Mean Temperature 57 °F -  
Max Temperature 63 °F 66 °F 77 °F (2004)
Min Temperature 51 °F 43 °F 33 °F (1997)
Degree Days  
Heating Degree Days 8    
Growing Degree Days 7 (Base 50)    
Moisture  
Dew Point 31 °F    
Average Humidity 37    
Maximum Humidity 49    
Minimum Humidity 24    
Precipitation  
Precipitation 0.00 in - - ()
Sea Level Pressure  
Sea Level Pressure 29.83 in    
Wind  
Wind Speed 7 mph (South)    
Max Wind Speed 18 mph    
Max Gust Speed -    
Visibility 10 miles    
Events      
Averages and records for this station are not official NWS values.
T = Trace of Precipitation, MM = Missing Value Source: NWS Daily Summary

Daily Weather History Graph

Daily Weather History Graph

Search for Another Location

Airport:

Trip Planner

Search our weather history database for the weather conditions in past years. The results will help you decide how hot, cold, wet, or windy it might be!

Date:

Astronomy

Mar. 07, 2013 Rise Set
Actual Time 6:01 AM PST 5:40 PM PST
Civil Twilight 5:36 AM PST 6:06 PM PST
Nautical Twilight 5:06 AM PST 6:36 PM PST
Astronomical Twilight 4:36 AM PST 7:06 PM PST
Moon 2:58 AM PST (3/7) 1:39 PM PST (3/7)
Length of Visible Light 12h 30m
Length of Day
11h 38m
Waning Crescent, 19% of the Moon is Illuminated
Mar 7
Waning Crescent
Mar 11
New
Mar 19
First Quarter
Mar 27
Full
Apr 2
Last Quarter

Hourly Weather History & Observations

Time (PST) Temp. Dew Point Humidity Pressure Visibility Wind Dir Wind Speed Gust Speed Precip Events Conditions
12:58 AM 56.5 °F 30.0 °F 36% 29.84 in 10.0 mi North 3.5 mph - N/A   Clear
1:58 AM 54.9 °F 31.1 °F 40% 29.83 in 10.0 mi SE 5.8 mph - N/A   Clear
2:58 AM 52.7 °F 31.3 °F 44% 29.82 in 10.0 mi South 11.5 mph - N/A   Clear
3:58 AM 52.2 °F 32.2 °F 47% 29.82 in 10.0 mi South 11.5 mph - N/A   Clear
4:58 AM 52.5 °F 32.0 °F 46% 29.83 in 10.0 mi South 18.4 mph - N/A   Clear
5:58 AM 51.4 °F 32.5 °F 49% 29.86 in 10.0 mi SSW 10.4 mph - N/A   Clear
6:58 AM 52.3 °F 32.9 °F 48% 29.88 in 10.0 mi South 11.5 mph - N/A   Clear
7:58 AM 54.9 °F 32.5 °F 43% 29.89 in 10.0 mi South 8.1 mph - N/A   Clear
8:58 AM 56.8 °F 31.1 °F 38% 29.89 in 10.0 mi South 9.2 mph - N/A   Clear
9:58 AM 58.6 °F 29.1 °F 33% 29.89 in 10.0 mi South 10.4 mph - N/A   Partly Cloudy
10:58 AM 60.1 °F 28.0 °F 30% 29.88 in 10.0 mi Variable 4.6 mph - N/A   Clear
11:58 AM 61.7 °F 27.7 °F 28% 29.85 in 10.0 mi SSW 9.2 mph - N/A   Clear
12:58 PM 62.6 °F 27.5 °F 26% 29.82 in 10.0 mi Calm Calm - N/A   Mostly Cloudy
1:58 PM 63.1 °F 25.9 °F 24% 29.82 in 10.0 mi SW 10.4 mph - N/A   Clear
2:58 PM 63.0 °F 27.9 °F 27% 29.80 in 10.0 mi SSW 4.6 mph - N/A   Clear
3:58 PM 62.6 °F 27.5 °F 26% 29.80 in 10.0 mi SW 9.2 mph - N/A   Clear
4:58 PM 62.1 °F 28.9 °F 29% 29.79 in 10.0 mi SW 2.3 mph - N/A   Scattered Clouds
5:58 PM 60.8 °F 32.5 °F 35% 29.81 in 10.0 mi SSW 6.9 mph - N/A   Partly Cloudy
6:58 PM 59.7 °F 32.4 °F 36% 29.81 in 10.0 mi South 8.1 mph - N/A   Clear
7:58 PM 59.0 °F 32.0 °F 36% 29.81 in 10.0 mi Calm Calm - N/A   Partly Cloudy
8:58 PM 57.9 °F 32.5 °F 38% 29.81 in 10.0 mi SSE 6.9 mph - N/A   Mostly Cloudy
9:58 PM 57.2 °F 32.4 °F 39% 29.80 in 10.0 mi Variable 6.9 mph - N/A   Scattered Clouds
10:58 PM 55.8 °F 32.2 °F 41% 29.79 in 10.0 mi ESE 2.3 mph - N/A   Scattered Clouds
11:58 PM 53.2 °F 32.0 °F 44% 29.78 in 10.0 mi NNE 5.8 mph - N/A   Scattered Clouds